Welcome to the New NWS' Forecast!
Most changes are behind the scenes, but click here for differences you might notice.
Latest weather observations around

Haleyville, Posey Field Airport (K1M4)

Using English Units (Switch to International System of Units)
Date/ Time (CDT) Wind (mph) Vis. (mi) Weather Sky Cond. Temp (°F) Rel. Humidity Wind Chill (°F) Heat Index (°F) Pressure Precip. (in)
Air Dwpt 6 hour Altimeter (inHg) Sea level (inHg) 1 hr 3 hr 6 hr
Max Min
Jul 23 01:56 NNW 5 10 Clear CLR 68 66     93%     29.84 29.86      
Jul 23 00:56 Calm 10 Clear CLR 68 66     93%     29.85 29.87      
Jul 22 23:56 Calm 10 Clear CLR 69 66     90%     29.87 29.89      
Jul 22 22:56 Calm 10 Clear CLR 70 67     90%     29.88 29.89      
Jul 22 21:56 NW 3 10 Clear CLR 73 67     81%   74 29.89 29.9      
Jul 22 20:56 NNW 6 10 Mostly Cloudy FEW055 BKN070 75 67     76%   76 29.88 29.89      
Jul 22 19:56 NNW 7 10 Clear CLR 77 67     71%   78 29.85 29.87      
Jul 22 18:56 NW 10 10 Mostly Clear FEW085 80 67     64%   82 29.84 29.85      
Jul 22 17:56 NW 8 10 Mostly Cloudy SCT044 SCT050 BKN085 81 67     62%   83 29.83 29.85      
Jul 22 16:56 7 10 Mostly Cloudy FEW045 SCT055 BKN070 83 67     59%   86 29.83 29.84      
Jul 22 14:56 NNW 10 10 Partly Cloudy SCT045 SCT060 84 67     57%   87 29.84 29.85      
Jul 22 13:56 NNW 10 10 Mostly Cloudy FEW045 SCT055 BKN070 82 66     58%   84 29.86 29.87      
Jul 22 12:56 NNW 11 10 Partly Cloudy FEW041 SCT055 84 67     57%   87 29.87 29.88      
Jul 22 11:56 7 10 Partly Cloudy SCT036 83 67     59%   86 29.88 29.89      
Jul 22 10:56 5 10 Mostly Clear FEW036 82 67     60%   85 29.9 29.91      
Jul 22 09:56 NW 10 10 Clear CLR 79 67     67%   80 29.89 29.91      
Jul 22 08:56 NW 7 10 Clear CLR 78 68     71%   79 29.9 29.91      
Jul 22 07:56 NW 6 10 Clear CLR 75 69     82%   76 29.9 29.91      
Jul 22 06:56 Calm 6 Fog/Mist CLR 71 69     93%   72 29.9 29.91      
Jul 22 05:56 Calm 7 Clear CLR 68 67     96%     29.89 29.9      
Jul 22 04:56 Calm 7 Clear CLR 69 68     96%     29.88 29.89      
Jul 22 03:56 Calm 10 Clear CLR 70 69     97%     29.87 29.88      
Jul 22 02:56 Calm 9 Clear CLR 70 69     97%     29.87 29.88      
Jul 22 01:56 Calm 10 Mostly Cloudy BKN080 72 70     93%   73 29.88 29.88      
Jul 22 00:56 Calm 10 Partly Cloudy SCT070 71 69     93%   72 29.89 29.9      
Jul 21 23:56 Calm 10 Clear CLR 71 69     93%   72 29.9 29.91      
Jul 21 22:56 Calm 10 Clear CLR 72 70     93%   73 29.9 29.91      
Jul 21 21:56 Calm 10 Clear CLR 73 70     90%   74 29.91 29.92      
Jul 21 20:56 NNW 5 10 Clear CLR 76 70     82%   77 29.9 29.91      
Jul 21 19:56 NNW 6 10 Clear CLR 80 71     74%   84 29.89 29.89      
Jul 21 18:56 NNW 10 10 Clear CLR 85 72     65%   91 29.87 29.87      
Jul 21 17:56 NNW 8 9 Partly Cloudy SCT040 SCT050 86 73     65%   93 29.86 29.87      
Jul 21 16:56 7 10 Mostly Cloudy SCT040 BKN046 BKN060 88 74     63%   97 29.88 29.88      
Jul 21 15:56 NW 7 10 Cloudy BKN040 OVC050 87 74     65%   95 29.88 29.88      
Jul 21 14:56 NNW 11 10 Cloudy BKN038 OVC048 87 74     65%   95 29.88 29.88      
Jul 21 13:56 NNW 11 9 Partly Cloudy SCT036 89 75     63%   99 29.88 29.88      
Jul 21 12:56 NW 8 10 Mostly Clear FEW027 88 75     66%   98 29.88 29.88      
Jul 21 11:56 WSW 10 10 Mostly Clear FEW025 86 75     70%   95 29.9 29.9      
Jul 21 10:56 5 10 Mostly Clear FEW022 84 75     74%   92 29.91 29.91      
Jul 21 10:46 7 10 Partly Cloudy SCT022 SCT027 84 75     74%   92 29.92        
Jul 21 09:56 7 10 Mostly Cloudy BKN018 82 74     77%   88 29.92 29.93      
Jul 21 08:56 W 9 10 Mostly Cloudy BKN018 82 75     79%   89 29.93 29.94      
Jul 21 08:52 5 10 Mostly Cloudy BKN018 81 75     84%   86 29.94        
Jul 21 07:56 W 9 10 Clear CLR 80 76     87%   85 29.96 29.97      
Jul 21 07:29 WSW 9 10 Partly Cloudy SCT004 SCT008 79 75     89%   82 29.96        
Jul 21 06:56 WSW 7 4 Fog/Mist OVC002 77 76     96%   79 29.96 29.97      
Jul 21 06:46 WSW 5 2 Fog/Mist OVC002 77 75     94%   79 29.94        
Jul 21 06:19 WSW 3 1 Fog/Mist OVC002 75 75     100%   77 29.93        
Jul 21 06:08 Calm 2.5 Fog/Mist OVC002 75 75     100%   77 29.92        
Jul 21 05:56 SW 3 3 Fog/Mist OVC004 76 76     100%   78 29.92 29.92      
Jul 21 04:56 SSW 5 5 Fog/Mist OVC004 77 76     96%   79 29.9 29.9      
Jul 21 03:56 SW 6 6 Fog/Mist OVC004 77 76     96%   79 29.88 29.88      
Jul 21 03:25 SSW 7 7 Mostly Cloudy BKN004 77 75     94%   79 29.87        
Jul 21 02:56 SSW 7 8 Mostly Clear FEW004 77 76     96%   79 29.88 29.88      
Jul 21 02:28 SSW 10 9 Mostly Cloudy FEW019 BKN038 77 75     94%   79 29.89        
Jul 21 02:14 SSW 9 10 Mostly Cloudy BKN019 77 75     94%   79 29.9        
Jul 21 01:56 SSW 9 10 Partly Cloudy SCT019 77 76     96%   79 29.91 29.91      
Jul 21 01:09 SSW 8 10 Mostly Clear FEW019 77 75     94%   79 29.94        
Jul 21 00:56 SSW 6 10 Mostly Cloudy BKN019 78 75     90%   80 29.94 29.94      
Jul 20 23:56 SSW 7 10 Cloudy OVC021 79 76     90%   83 29.94 29.94      
Jul 20 23:30 S 6 10 Mostly Cloudy BKN021 79 75     89%   82 29.95        
Jul 20 22:56 SSW 8 10 Mostly Clear FEW025 79 76     90%   83 29.94 29.94      
Jul 20 21:56 SSW 7 10 Clear CLR 79 76     90%   83 29.96 29.96      
Jul 20 20:56 SSW 5 10 Mostly Cloudy FEW033 BKN090 80 77     90%   86 29.97 29.98      
Jul 20 19:56 S 5 10 Clear CLR 82 77     85%   90 29.95 29.96      
Jul 20 18:56 S 7 10 Mostly Clear FEW024 85 77     77%   95 29.95 29.96      
Jul 20 17:56 S 9 10 Clear CLR 87 76     70%   98 29.93 29.94      
Jul 20 16:56 SSW 10 10 Mostly Cloudy SCT024 SCT029 BKN037 86 76     72%   96 29.95 29.96      
Jul 20 15:56 S 9 10 Mostly Cloudy FEW024 BKN035 87 77     72%   99 29.95 29.96      
Jul 20 15:39 S 8 10 Mostly Cloudy FEW025 BKN035 88 77     70%   100 29.96        
Jul 20 14:56 SSW 5 10 Mostly Cloudy BKN027 88 76     68%   99 29.97 29.98      
Jul 20 14:53 7 10 Partly Cloudy SCT027 88 75     66%   98 29.97        
Jul 20 14:40 6 10 Mostly Cloudy BKN027 88 75     66%   98 29.97        
Jul 20 13:56 SSE 6 10 Partly Cloudy SCT024 86 75     70%   95 29.99 29.99      
Jul 20 13:54 S 7 10 Mostly Clear FEW024 86 75     70%   95 29.99        
Jul 20 12:56 SSE 6 10 Cloudy OVC023 84 75     74%   92 30.02 30.02      
Jul 20 11:56 7 10 Mostly Cloudy BKN021 84 75     74%   92 30.03 30.04      
Jul 20 10:56 S 6 10 Mostly Cloudy BKN015 81 73     77%   86 30.03 30.04      
Jul 20 09:56 S 8 10 Clear CLR 80 73     79%   84 30.02 30.03      
Jul 20 08:56 6 10 Mostly Clear FEW010 76 71     85%   77 30.03 30.05      
Jul 20 07:56 S 6 10 Mostly Clear FEW008 74 71     91%   75 30.03 30.04      
Jul 20 06:56 S 6 10 Clear CLR 72 70     93%   73 30.01 30.02      
Jul 20 05:56 S 5 10 Clear CLR 71 69     93%   72 29.99 30      
Jul 20 04:56 S 3 10 Clear CLR 72 70     93%   73 29.98 29.98      
Jul 20 03:56 SSE 5 10 Clear CLR 73 70     90%   74 29.96 29.97      
Jul 20 02:56 SSE 6 10 Clear CLR 73 72     96%   75 29.96 29.97      
May 14 07:56 Calm 10 Clear CLR 73 68     84%   74 30.11        
May 14 05:56 Calm 1 Fog/Mist CLR 60 60     100%     30.08        
May 12 15:56 SSW 10 10 Clear   87 56     35%   86 30.13 30.14      
May 11 23:56 S 5 10 Clear CLR 70 59     68%     30.11 30.12      
Jun 12 02:56 S 5 10 Clear CLR 72 69     91%   73 30.14 30.15      
Jun 11 11:56 SSW 10 10 Partly Cloudy SCT075 85 70     61%   89 30.18 30.19      
Jun 10 23:56 ESE 3 10 Clear CLR 66 63     90%       30.14      
Jun 10 12:56 6 10 Partly Cloudy SCT055 83 60     46%   83 30.11 30.14      
Jun 09 04:56 Calm 8 Clear CLR 54 53     97%     29.96 30      
Jun 08 23:56 N 3 10 Clear CLR 60 56     86%     29.97 30.01      
Jun 06 12:56 Calm 10 Mostly Cloudy BKN085 BKN110 71 69     93%   72 29.85 29.87 0   0
Jun 06 00:48 Calm 3 Fog/Mist FEW120 70 70     100%     29.85   0    
Jun 05 22:37 S 5 10 Mostly Cloudy BKN005 72 70     94%   73 29.85        
Notice The following observation data may not be complete
Jun 05 20:09   10 Partly Cloudy FEW015 SCT025          %